Flag for Norway Weather past 2 weeks in Brumunddal, Norway

Now
62 °F

Cool.


Feels Like: 62 °F
Forecast: 56 / 80 °F
Wind: 2 mph from Northeast

Location: Lillehammer-Saetherengen

Current Time: Jul 4, 2015 at 5:52:57 AM

Latest Report: Jul 4, 2015 at 5:00 AM


Visibility: N/A

Pressure: 30.18 "Hg

Humidity: 68%

Dew point: 51 °F

Location of BrumunddalLocation

Historic Weather in Brumunddal — Graph

°F

Brumunddal temperature yesterday

Maximum temperature yesterday: 79 °F (at 7:00 PM)
Minimum temperature yesterday: 56 °F (at 5:00 AM)
Average temperature yesterday: 68 °F

Past Weeks' High & Low Weather Summary

 TemperatureHumidityPressure
High81 °F (Jul 1, 6:00 PM)95% (Jun 23, 4:00 AM)30.27 "Hg (Jun 23, 4:00 AM)
Low46 °F (Jun 19, 4:00 AM)32% (Jun 21, 6:00 PM)29.65 "Hg (Jun 23, 3:00 PM)
Average60 °F65%29.91 "Hg
* Reported Jun 19 4:00 AM — Jul 4 4:00 AM, Brumunddal, Weather by CustomWeather, © 2015

Note: Actual official high and low records may vary slightly from our data, if they occured in-between our weather recording intervals... More about our weather records

Advertising

Brumunddal weather history for previous 24 hours

 ConditionsComfort  
Time TempWeatherWind HumidityBarometerVisibility
4:00 AM
Sat, Jul 4
62 °FCool.1 mph66%30.18 "HgN/A
3:00 AM63 °FMild.2 mph65%30.17 "HgN/A
2:00 AM64 °FMild.2 mph62%30.16 "HgN/A
1:00 AM65 °FMild.2 mph60%30.15 "HgN/A
12:00 AM67 °FMild.2 mph61%30.14 "HgN/A
11:00 PM
Fri, Jul 3
69 °FMild.1 mph72%30.13 "HgN/A
10:00 PM73 °FMild.1 mph66%30.10 "HgN/A
9:00 PM74 °FMild.1 mph60%30.10 "HgN/A
8:00 PM74 °FMild.1 mph62%30.10 "HgN/A
7:00 PM79 °FWarm.2 mph52%30.09 "HgN/A
6:00 PM79 °FWarm.3 mph49%30.09 "HgN/A
5:00 PM79 °FWarm.2 mph48%30.11 "HgN/A
4:00 PM78 °FWarm.1 mph48%30.12 "HgN/A
3:00 PM75 °FMild.2 mph53%30.15 "HgN/A
2:00 PM70 °FMild.1 mph58%30.17 "HgN/A
1:00 PM69 °FMild.1 mph58%30.17 "HgN/A
12:00 PM68 °FMild.2 mph61%30.19 "HgN/A
11:00 AM64 °FMild.2 mph64%30.21 "HgN/A
10:00 AM67 °FMild.1 mph61%30.20 "HgN/A
9:00 AM65 °FMild.2 mph63%30.21 "HgN/A
8:00 AM63 °FMild.1 mph69%30.22 "HgN/A
7:00 AM61 °FCool.1 mph75%30.23 "HgN/A
6:00 AM57 °FCool.1 mph82%30.24 "HgN/A
5:00 AM56 °FCool.1 mph81%30.24 "HgN/A
Weather by CustomWeather, © 2015

See weather overviewHow to use our weather pages